STARLINK-32238, 61661

Orbit data source: Space-Track

STARLINK-32238, 61661 is a payload satellite owned by SpaceX/Seattle (US) in LEO that was launched on Sat, 26 Oct 2024 UTC via an FALCON 9 launch vehicle from the Air Force Eastern Test Range (AFETR). Payload-class satellites include a variety of spacecraft equipped with specific instruments for various scientific and technological missions. These include communications satellites like Starlink; space stations such as the ISS; scientific satellites like the Hubble; Earth observation satellites from companies like Planet Labs, Umbra, and HawkEye 360; GPS; miniature CubeSats for education and research; and military/defense satellites.

Loading next visibility...
Identifier
61661, 2024-193A
Orbit
LEO
Country
Flag of USUS
Related business
Manufacturer
SpaceX/Seattle
Mission
Operational Commercial Communications
Bus & Motor
STARLINK V2M, Unknown motor
Mass
730 kg wet, ~700 kg dry
Launch date (UTC)
2024-10-26 (1 year ago)
Launch vehicle
FALCON 9
Launch site
Air Force Eastern Test Range (AFETR)
Object type
Payload
Rocket body
Debris
Shape & HBR
Box + 2 Pan, 17.7 m
Radar Cross Section
33.884 m², Large (>1 m²)

Expand to show TLE details & history
Last TLE update: 1 day ago

TLE from 1 day ago
0 STARLINK-32238
1 61661U 24193A   25312.65939772  .00003663  00000-0  13573-3 0  9990
2 61661  53.1614 293.3735 0000997 102.6285 257.4827 15.30200710 57997
Epoch: 2025-11-08T15:49Z
TLE epoch observation values (Epoch: 2025-11-08T15:49:31.963Z)
Latitude
-0.00007°
Longitude
7.90444°
Altitude
476.261 km
Speed
7.629 km/s
True Right ascension
19h 33m 29s
True Declination
0° 00' 00"
Sunlit
Object was in daylight at epoch
Visualization orbit readout
Latitude
Unknown
Longitude
Unknown
Altitude
Unknown
Speed
Unknown
Apparent Right ascension
Unknown
Apparent Declination
Unknown
Sunlit
N/A
Visualization observer readout
Local Sidereal Time
18:40:15
Azimuth
Unknown
Elevation
Unknown
Doppler factor
Unknown
Orbital elements
Apogee altitude
476.152 km
Perigee altitude
474.786 km
Semi-major axis
6,853.606 km
Eccentricity
0.0001
Inclination
53.1614°
RAAN
293.3735°
Arg. of periapsis
102.6285°
True anomaly
257.47155°
Mean anomaly
257.4827°
Eccentric anomaly
257.47712°
Mean motion
3.82529 °/min
Orbital period
94.11 mins
BSTAR
0.00013573
Loading maneuver chart data...
Computing Atmospheric mass density...
Loading historical data...
Loading historical data...
Loading historical data...
Loading historical data...
Loading historical data...
Loading historical data...
Loading historical data...

Documentation

Showing up to 5 results
|